V8500 KLAX-KLAS

Flight info

Callsign V8500
Flight time N/A
Altitude 29000
Route OSHNN1 MISEN RNDRZ4
Aircraft HDJT/L-SABDGRWY/H

Departure

Time 2026-04-26 06:48
Airport Los Angeles International Airport (KLAX)

Arrival

Time N/A
Airport Harry Reid International Airport (KLAS)
Time Latitude Longitude Altitude Speed Heading
2026-04-26 06:14 33.94626 -118.40488 120 ft 0 kts 105°
2026-04-26 06:32 33.94628 -118.40497 118 ft 1 kts 95°
2026-04-26 06:33 33.94627 -118.40509 119 ft 1 kts 87°
2026-04-26 06:33 33.94627 -118.40520 120 ft 1 kts 87°
2026-04-26 06:33 33.94625 -118.40532 120 ft 1 kts 69°
2026-04-26 06:33 33.94620 -118.40541 120 ft 1 kts 50°
2026-04-26 06:34 33.94617 -118.40545 120 ft 0 kts 41°
2026-04-26 06:39 33.94633 -118.40538 118 ft 5 kts 357°
2026-04-26 06:39 33.94659 -118.40543 120 ft 7 kts 351°
2026-04-26 06:40 33.94726 -118.40554 120 ft 9 kts 352°
2026-04-26 06:40 33.94770 -118.40582 120 ft 5 kts 340°
2026-04-26 06:40 33.94792 -118.40590 117 ft 6 kts 346°
2026-04-26 06:40 33.94833 -118.40600 120 ft 4 kts 354°
2026-04-26 06:41 33.94860 -118.40598 120 ft 4 kts 43°
2026-04-26 06:41 33.94871 -118.40536 120 ft 10 kts 83°
2026-04-26 06:41 33.94879 -118.40463 120 ft 7 kts 82°
2026-04-26 06:41 33.94883 -118.40416 120 ft 5 kts 83°
2026-04-26 06:42 33.94892 -118.40336 118 ft 11 kts 83°
2026-04-26 06:42 33.94900 -118.40252 120 ft 9 kts 83°
2026-04-26 06:42 33.94907 -118.40188 120 ft 7 kts 81°
2026-04-26 06:42 33.94913 -118.40141 120 ft 6 kts 83°
2026-04-26 06:43 33.94919 -118.40080 120 ft 7 kts 83°
2026-04-26 06:43 33.94926 -118.40018 120 ft 10 kts 83°
2026-04-26 06:43 33.94936 -118.39949 118 ft 7 kts 66°
2026-04-26 06:43 33.94956 -118.39921 119 ft 2 kts 30°
2026-04-26 06:44 33.94958 -118.39920 119 ft 0 kts 21°
2026-04-26 06:47 33.94966 -118.39916 120 ft 7 kts 19°
2026-04-26 06:47 33.95009 -118.39915 120 ft 6 kts 349°
2026-04-26 06:47 33.95037 -118.39936 120 ft 4 kts 294°
2026-04-26 06:47 33.95030 -118.40053 120 ft 25 kts 262°
2026-04-26 06:48 33.94974 -118.40597 119 ft 108 kts 262°
2026-04-26 06:48 33.94864 -118.41653 240 ft 155 kts 261°
2026-04-26 06:48 33.94749 -118.42919 1120 ft 136 kts 263°
2026-04-26 06:48 33.94666 -118.43819 2364 ft 90 kts 262°
2026-04-26 06:49 33.94562 -118.44691 2604 ft 122 kts 264°
2026-04-26 06:49 33.94449 -118.45833 2923 ft 151 kts 263°
2026-04-26 06:49 33.94339 -118.47263 3166 ft 184 kts 268°
2026-04-26 06:49 33.94300 -118.48743 4174 ft 174 kts 269°
2026-04-26 06:50 33.94265 -118.50305 4629 ft 201 kts 268°
2026-04-26 06:50 33.94156 -118.52103 4945 ft 230 kts 265°
2026-04-26 06:50 33.93993 -118.54126 5332 ft 250 kts 264°
2026-04-26 06:50 33.93820 -118.56199 5890 ft 252 kts 263°
2026-04-26 06:51 33.93387 -118.58238 6493 ft 253 kts 248°
2026-04-26 06:51 33.91360 -118.61701 7679 ft 258 kts 222°
2026-04-26 06:51 33.89872 -118.62929 8296 ft 262 kts 209°
2026-04-26 06:52 33.88139 -118.63670 8932 ft 267 kts 196°
2026-04-26 06:52 33.86273 -118.63881 9587 ft 274 kts 181°
2026-04-26 06:52 33.84375 -118.63501 10216 ft 281 kts 167°
2026-04-26 06:52 33.82578 -118.62511 10828 ft 290 kts 152°
2026-04-26 06:53 33.80899 -118.61105 11459 ft 297 kts 149°
2026-04-26 06:53 33.79200 -118.59674 12110 ft 300 kts 152°
2026-04-26 06:53 33.77446 -118.58294 12780 ft 303 kts 153°
2026-04-26 06:53 33.75662 -118.56903 13471 ft 308 kts 153°
2026-04-26 06:54 33.73871 -118.55462 14127 ft 312 kts 152°
2026-04-26 06:54 33.72076 -118.53971 14744 ft 316 kts 150°
2026-04-26 06:54 33.70445 -118.52148 15376 ft 327 kts 136°
2026-04-26 06:54 33.69148 -118.49857 16023 ft 337 kts 122°
2026-04-26 06:55 33.68258 -118.47228 16680 ft 344 kts 112°
2026-04-26 06:55 33.67510 -118.44451 16995 ft 359 kts 112°
2026-04-26 06:55 33.66675 -118.41546 16998 ft 375 kts 114°
2026-04-26 06:55 33.65745 -118.38564 17004 ft 382 kts 115°
2026-04-26 06:56 33.64860 -118.35561 17009 ft 383 kts 109°
2026-04-26 06:56 33.64449 -118.32402 17096 ft 380 kts 95°
2026-04-26 06:56 33.64457 -118.29298 17999 ft 367 kts 90°
2026-04-26 06:56 33.64507 -118.26214 18535 ft 372 kts 91°
2026-04-26 06:57 33.64647 -118.23098 19031 ft 377 kts 81°
2026-04-26 06:57 33.65048 -118.21065 19371 ft 379 kts 72°
2026-04-26 06:57 33.66087 -118.18151 19875 ft 381 kts 58°
2026-04-26 06:57 33.67614 -118.15553 20382 ft 381 kts 44°
2026-04-26 06:58 33.69547 -118.13398 20896 ft 379 kts 32°
2026-04-26 06:58 33.71694 -118.11544 21406 ft 381 kts 30°
2026-04-26 06:58 33.73854 -118.09673 21936 ft 386 kts 31°
2026-04-26 06:58 33.75993 -118.07696 22424 ft 390 kts 33°
2026-04-26 06:59 33.78144 -118.05684 22935 ft 394 kts 32°
2026-04-26 06:59 33.80353 -118.03687 23400 ft 399 kts 31°
2026-04-26 06:59 33.82602 -118.01708 23853 ft 402 kts 30°
2026-04-26 06:59 33.84866 -117.99703 24316 ft 406 kts 31°
2026-04-26 07:00 33.87134 -117.97649 24766 ft 409 kts 32°
2026-04-26 07:00 33.89399 -117.95582 25292 ft 407 kts 32°
2026-04-26 07:00 33.91606 -117.93575 26157 ft 393 kts 31°
2026-04-26 07:00 33.93794 -117.91592 26685 ft 390 kts 31°
2026-04-26 07:01 33.95914 -117.89651 27515 ft 382 kts 31°
2026-04-26 07:01 33.98040 -117.87701 27921 ft 387 kts 31°
2026-04-26 07:01 34.00232 -117.85706 27946 ft 402 kts 31°
2026-04-26 07:01 34.02489 -117.83657 28100 ft 402 kts 32°
2026-04-26 07:02 34.04652 -117.81653 28937 ft 389 kts 32°
2026-04-26 07:02 34.06843 -117.79635 28957 ft 404 kts 31°
2026-04-26 07:02 34.09056 -117.77457 28960 ft 420 kts 40°
2026-04-26 07:02 34.11014 -117.74740 28970 ft 435 kts 49°
2026-04-26 07:03 34.14781 -117.68821 28972 ft 452 kts 47°
2026-04-26 07:03 34.18914 -117.63024 28984 ft 465 kts 46°
2026-04-26 07:04 34.23012 -117.56873 28963 ft 474 kts 50°
2026-04-26 07:04 34.27138 -117.50642 28952 ft 473 kts 47°
2026-04-26 07:05 34.31335 -117.44507 28942 ft 473 kts 49°
2026-04-26 07:05 34.35448 -117.38278 28940 ft 473 kts 49°
2026-04-26 07:06 34.39591 -117.32089 28925 ft 473 kts 48°
2026-04-26 07:06 34.43739 -117.25899 28901 ft 473 kts 49°
2026-04-26 07:07 34.47853 -117.19670 28917 ft 473 kts 49°
2026-04-26 07:07 34.51983 -117.13484 28873 ft 469 kts 49°
2026-04-26 07:08 34.56121 -117.07371 28852 ft 469 kts 48°
2026-04-26 07:08 34.60296 -117.01289 28854 ft 469 kts 49°
2026-04-26 07:09 34.64425 -116.95230 28846 ft 469 kts 48°
2026-04-26 07:09 34.68610 -116.89144 28850 ft 469 kts 48°
2026-04-26 07:11 34.79018 -116.73879 28866 ft 469 kts 49°
2026-04-26 07:11 34.83184 -116.67766 28865 ft 469 kts 49°
2026-04-26 07:12 34.87674 -116.62048 28860 ft 466 kts 37°
2026-04-26 07:12 34.92856 -116.57328 28846 ft 466 kts 33°
2026-04-26 07:13 34.97984 -116.52436 28838 ft 470 kts 38°
2026-04-26 07:13 35.02996 -116.47332 28831 ft 469 kts 36°
2026-04-26 07:14 35.08157 -116.42456 28824 ft 469 kts 35°
2026-04-26 07:14 35.13009 -116.37132 28830 ft 471 kts 45°
2026-04-26 07:14 35.15225 -116.34167 28356 ft 470 kts 47°
2026-04-26 07:15 35.17354 -116.31171 27756 ft 464 kts 48°
2026-04-26 07:15 35.19491 -116.28259 27147 ft 457 kts 45°
2026-04-26 07:15 35.21687 -116.25478 26541 ft 451 kts 44°
2026-04-26 07:15 35.23854 -116.22722 25955 ft 449 kts 47°
2026-04-26 07:16 35.25947 -116.19896 25368 ft 446 kts 48°
2026-04-26 07:16 35.27955 -116.17095 24789 ft 442 kts 49°
2026-04-26 07:16 35.29968 -116.14274 24208 ft 438 kts 48°
2026-04-26 07:16 35.31987 -116.11500 23643 ft 435 kts 47°
2026-04-26 07:17 35.34007 -116.08769 23022 ft 431 kts 47°
2026-04-26 07:17 35.36005 -116.06057 22446 ft 426 kts 48°
2026-04-26 07:17 35.37963 -116.03358 21888 ft 422 kts 48°
2026-04-26 07:17 35.39893 -116.00673 21342 ft 417 kts 48°
2026-04-26 07:18 35.41806 -115.98023 20795 ft 413 kts 48°
2026-04-26 07:18 35.43711 -115.95407 20251 ft 409 kts 47°
2026-04-26 07:18 35.45600 -115.92829 19713 ft 407 kts 49°
2026-04-26 07:18 35.47485 -115.90250 19177 ft 403 kts 49°
2026-04-26 07:19 35.49336 -115.87686 18656 ft 400 kts 50°
2026-04-26 07:19 35.51168 -115.85126 18127 ft 397 kts 50°
2026-04-26 07:19 35.52987 -115.82594 17579 ft 393 kts 49°
2026-04-26 07:19 35.54768 -115.80134 17262 ft 377 kts 49°
2026-04-26 07:20 35.56486 -115.77763 16789 ft 367 kts 49°
2026-04-26 07:20 35.58160 -115.75443 16312 ft 359 kts 49°
2026-04-26 07:20 35.59808 -115.73152 16060 ft 357 kts 49°
2026-04-26 07:20 35.61474 -115.70882 16054 ft 358 kts 48°
2026-04-26 07:21 35.63165 -115.68633 16063 ft 358 kts 47°
2026-04-26 07:21 35.64859 -115.66382 16057 ft 358 kts 48°
2026-04-26 07:21 35.66533 -115.64123 16053 ft 358 kts 48°
2026-04-26 07:21 35.68200 -115.61853 16048 ft 357 kts 49°
2026-04-26 07:22 35.69868 -115.59587 16046 ft 357 kts 49°
2026-04-26 07:22 35.71540 -115.57325 15996 ft 357 kts 49°
2026-04-26 07:22 35.73356 -115.55256 15751 ft 356 kts 34°
2026-04-26 07:22 35.75474 -115.53702 15449 ft 353 kts 27°
2026-04-26 07:23 35.77610 -115.52303 15139 ft 351 kts 27°
2026-04-26 07:23 35.79761 -115.50814 14820 ft 349 kts 29°
2026-04-26 07:23 35.81840 -115.49287 14505 ft 347 kts 30°
2026-04-26 07:23 35.83888 -115.47799 14190 ft 345 kts 28°
2026-04-26 07:24 35.85977 -115.46340 13877 ft 345 kts 28°
2026-04-26 07:24 35.87409 -115.45357 13662 ft 343 kts 27°
2026-04-26 07:24 35.89475 -115.43926 13328 ft 341 kts 28°
2026-04-26 07:24 35.91528 -115.42475 13013 ft 339 kts 28°
2026-04-26 07:25 35.93573 -115.41028 12708 ft 338 kts 28°
2026-04-26 07:25 35.95617 -115.39601 12388 ft 337 kts 27°
2026-04-26 07:25 35.97563 -115.38010 12075 ft 336 kts 41°
2026-04-26 07:25 35.99161 -115.35906 11774 ft 336 kts 53°
2026-04-26 07:26 36.00335 -115.33436 11471 ft 333 kts 69°
2026-04-26 07:26 36.01045 -115.30764 11138 ft 321 kts 82°
2026-04-26 07:26 36.01240 -115.28078 10853 ft 311 kts 95°
2026-04-26 07:26 36.01115 -115.25430 10603 ft 305 kts 99°
2026-04-26 07:27 36.00964 -115.22877 10331 ft 291 kts 98°
2026-04-26 07:27 36.00850 -115.20432 10073 ft 279 kts 98°
2026-04-26 07:27 36.00757 -115.18083 9824 ft 269 kts 98°
2026-04-26 07:27 36.00659 -115.15807 9572 ft 262 kts 99°
2026-04-26 07:28 36.00549 -115.13585 9328 ft 258 kts 99°
2026-04-26 07:28 36.00431 -115.11376 9089 ft 258 kts 99°
2026-04-26 07:28 36.00314 -115.09164 8854 ft 258 kts 99°
2026-04-26 07:28 36.00206 -115.06952 8619 ft 258 kts 99°
2026-04-26 07:29 36.00094 -115.04747 8383 ft 257 kts 99°
2026-04-26 07:29 35.99982 -115.02538 8158 ft 259 kts 99°
2026-04-26 07:29 35.99908 -115.00317 8022 ft 257 kts 96°
2026-04-26 07:29 35.99904 -114.98127 7998 ft 255 kts 95°
2026-04-26 07:30 35.99910 -114.95941 8001 ft 255 kts 95°